• MPC Preparation (Info)

  • MPEC 2022-U305 : 2022 UV11

    The following Minor Planet Electronic Circular may be linked-to from your own Web pages, but must not otherwise be redistributed electronically.

    A form allowing access to any MPEC is at the bottom of this page.


    Read MPEC 2022-U304 Read MPEC 2022-U306


    M.P.E.C. 2022-U305                             Issued 2022 October 27, 13:00 UT
    
         The Minor Planet Electronic Circulars contain information on unusual
             minor planets and routine data on comets.  They are published
        on behalf of Division F of the International Astronomical Union by the
              Minor Planet Center, Smithsonian Astrophysical Observatory,
                              Cambridge, MA 02138, U.S.A.
    
                 Prepared using the Tamkin Foundation Computer Network
    
                                  MPC@CFA.HARVARD.EDU
                URL https://www.minorplanetcenter.net/    ISSN 1523-6714
    
                                    2022 UV11                                
    
    
    Observations:
         K22U11V  C2022 10 17.26955 01 19 43.81 +10 09 53.2          21.0 GVEU305G96
         K22U11V  C2022 10 17.28632 01 19 43.01 +10 10 30.2          20.7 GVEU305G96
         K22U11V* C2022 10 19.47698401 18 38.306+11 29 18.72         21.51wUEU305F52
         K22U11V  C2022 10 19.48785301 18 37.799+11 29 41.85         21.93wUEU305F52
         K22U11V  C2022 10 19.49875601 18 37.294+11 30 04.71         21.98wUEU305F52
         K22U11V  C2022 10 19.50976701 18 36.797+11 30 27.84         21.60wUEU305F52
         K22U11V  C2022 10 19.57035501 18 34.183+11 32 35.52         22.44GVEU305F51
         K22U11V  C2022 10 19.57099601 18 34.171+11 32 36.15         21.94GVEU305F51
         K22U11V  C2022 10 26.25338101 15 51.253+15 23 06.36         21.33GVEU305G96
         K22U11V  C2022 10 26.25855601 15 51.077+15 23 16.62         21.65GVEU305G96
         K22U11V  C2022 10 26.26371901 15 50.886+15 23 26.52         22.56GVEU305G96
         K22U11V  C2022 10 26.26888401 15 50.706+15 23 36.42         21.67GVEU305G96
    
    Observer details:
    F51 Pan-STARRS 1, Haleakala.  Observers J. Bulger, K. Chambers, T. Lowe, A.
        Schultz, I. Smith.  Measurers S. Chastel, J. Fairlamb, M. Huber, Y.
        Ramanjooloo, R. Wainscoat, R. Weryk.  1.8-m Ritchey-Chretien + CCD.
    F52 Pan-STARRS 2, Haleakala.  Observers J. Bulger, T. Lowe, A. Schultz, I.
        Smith.  Measurers K. Chambers, S. Chastel, T. de Boer, J. Fairlamb, H.
        Gao, M. Huber, C.-C. Lin, E. Magnier, Y. Ramanjooloo, R. Wainscoat, R.
        Weryk.  1.8-m Ritchey-Chretien + CCD.
    G96 Mt. Lemmon Survey.  Observers A. Serrano, D. Rankin.  Measurers B. Gray,
        D. Rankin, F. C. Shelly, E. J. Christensen, D. Fay, J. B. Fazekas, D. C.
        Fuls, A. R. Gibbs, A. D. Grauer, H. Groeller, J. K. Hogan, R. A. Kowalski,
        S. M. Larson, G. J. Leonard, R. L. Seaman, A. Serrano, K. W. Wierzchos.
        1.5-m reflector + 10K CCD.
    
    Orbital elements:
    2022 UV11                                                Earth MOID = 0.1696 AU
    Epoch 2022 Aug. 9.0 TT = JDT 2459800.5                  Bell                    
    M 321.38426              (2000.0)            P               Q                  
    n   0.52764565     Peri.    5.73796     +0.89293443     -0.44872684             
    a   1.5167284      Node    21.04101     +0.40892190     +0.77480146             
    e   0.2316643      Incl.    5.79088     +0.18828429     +0.44533911             
    P   1.87           H   24.98          G   0.15           U   9                  
    Residuals in seconds of arc
    221017 G96  0.1-  0.3-    221019 F52  0.1+  0.1-    221026 G96  0.4-  0.3+
    221017 G96  0.0   0.3+    221019 F52  0.2+  0.2-    221026 G96  0.0   0.3+
    221019 F52  0.1-  0.1-    221019 F51  0.2-  0.6+    221026 G96  0.1+  0.1-
    221019 F52  0.0   0.1+    221019 F51  0.0   0.1-    221026 G96  0.3+  0.4-
    
    Ephemeris:
    2022 UV11                a,e,i = 1.52, 0.23, 6                   q = 1.1654
    Date    TT    R. A. (2000) Decl.     Delta      r    Elong.  Phase     V
    2022 09 27    01 26 17.9 -01 19 01   0.1855  1.1799   161.5    15.6    22.5
    ...
    2022 10 12    01 22 14.6 +06 59 31   0.1696  1.1675   176.4     3.1    21.8
    ...
    2022 10 20    01 18 24.9 +11 48 03   0.1700  1.1654   175.0     4.2    21.8
    ...
    2022 10 26    01 15 56.1 +15 14 56   0.1744  1.1659   168.8     9.5    22.1
    2022 10 27    01 15 36.9 +15 47 51   0.1755  1.1662   167.8    10.4    22.2
    2022 10 28    01 15 19.7 +16 20 14   0.1767  1.1665   166.8    11.2    22.2
    ...
    2022 11 03    01 14 29.9 +19 22 11   0.1857  1.1694   161.1    15.9    22.5
    ...
    2022 11 11    01 16 11.5 +22 47 54   0.2027  1.1761   154.3    21.4    22.9
    ...
    2022 11 26    01 28 46.6 +27 21 20   0.2484  1.1966   143.8    29.2    23.6
    
    M. P. C. Staff               (C) Copyright 2022 MPC           M.P.E.C. 2022-U305
    


    Read MPEC 2022-U304 Read MPEC 2022-U306


    MPEC number:

    Enter an MPEC number in one of the following forms:

    • 1997-B01 (the full form)
    • J97B01 (the packed version of the full form)
    • B01 (the abbreviated form)